Location: Estes P
(40.3770°N, 105.5210°W)
Time: 07:02:06
(UTC-06:00)

Tiangong 2 - Visible Passes

Search period start: 18 October 2017 00:00
Search period end: 28 October 2017 00:00
Orbit: 388 x 392 km, 42.8° (Epoch: 18 October)

Date Brightness Start Highest point End Pass type
(mag) Time Alt. Az. Time Alt. Az. Time Alt. Az.
18 Oct 1.6 05:27:47 58° E 05:27:47 58° E 05:30:27 10° ESE visible
19 Oct 1.7 06:05:11 30° WSW 06:06:11 41° SSW 06:09:13 10° SE visible
20 Oct 3.5 05:10:19 21° ESE 05:10:19 21° ESE 05:11:33 10° ESE visible
20 Oct 3.3 06:43:08 10° WSW 06:44:50 14° SW 06:46:33 10° S visible
21 Oct 2.9 05:47:52 21° S 05:47:52 21° S 05:49:44 10° SSE visible
